カタログに戻る

CZ-4C DEB

運用中SSO
NORAD 38663·DEBRIS·🇨🇳 China

打ち上げ May 29, 2012 から Taiyuan Satellite Launch Center

Loading…

次のパス (今後24時間)

TLE

最新Source: Space-Track

元期: Sep 14, 2026, 12:39 UTC

1 38663U 12029E   26257.52734036 -.00000117  00000-0 -20677-3 0  9998
2 38663 100.2201 190.2599 0137235 282.6793  75.9005 13.08869035621612

AllMySatでCZ-4C DEBをリアルタイム追跡

Download on the App Store